• In Hungary
  • List of Countries
  • For 7 days
  • Water Temperature
  • Satellite Maps
  • Weather Map
  • News
  • Weather Widgets
  • user-avatar
    Login

    Hourly Weather Uyna

    Today, 20 November, Monday

    Time Temperature Precipitation Wind Pressure Humidity
    00:00 +19°C° 0 mm 0 mps 740 mmHg 97%
    01:00 +19°C° 0 mm 0 mps 740 mmHg 98%
    02:00 +19°C° 0 mm 0 mps 739 mmHg 98%
    03:00 +20°C° 0 mm 1 mps 739 mmHg 98%
    04:00 +20°C° 0 mm 1 mps 739 mmHg 98%
    05:00 +20°C° 0 mm 1 mps 740 mmHg 98%
    06:00 +18°C° 0 mm 0 mps 740 mmHg 98%
    07:00 +23°C° 0 mm 1 mps 740 mmHg 86%
    08:00 +25°C° 0 mm 1 mps 740 mmHg 74%
    09:00 +28°C° 0 mm 2 mps 740 mmHg 62%
    10:00 +29°C° 0 mm 2 mps 740 mmHg 56%
    11:00 +30°C° 0 mm 2 mps 740 mmHg 51%
    12:00 +32°C° 0 mm 2 mps 739 mmHg 46%
    13:00 +32°C° 0 mm 2 mps 739 mmHg 46%
    14:00 +32°C° 0 mm 2 mps 738 mmHg 46%
    15:00 +32°C° 0 mm 2 mps 738 mmHg 47%
    16:00 +30°C° 0 mm 2 mps 738 mmHg 55%
    17:00 +28°C° 0 mm 1 mps 738 mmHg 64%
    18:00 +26°C° 0 mm 1 mps 738 mmHg 73%
    19:00 +25°C° 0 mm 1 mps 739 mmHg 79%
    20:00 +23°C° 0 mm 1 mps 739 mmHg 85%
    21:00 +20°C° 0 mm 0 mps 740 mmHg 91%
    22:00 +20°C° 0 mm 0 mps 740 mmHg 92%
    23:00 +19°C° 0 mm 0 mps 739 mmHg 94%

    Tomorrow, 21 November, Tuesday

    Time Temperature Precipitation Wind Pressure Humidity
    00:00 +19°C° 0 mm 0 mps 739 mmHg 96%
    01:00 +19°C° 0 mm 0 mps 739 mmHg 96%
    02:00 +18°C° 0 mm 0 mps 739 mmHg 96%
    03:00 +20°C° 0 mm 1 mps 738 mmHg 96%
    04:00 +20°C° 0 mm 1 mps 739 mmHg 96%
    05:00 +20°C° 0 mm 1 mps 739 mmHg 96%
    06:00 +20°C° 0 mm 1 mps 739 mmHg 95%
    07:00 +23°C° 0 mm 1 mps 739 mmHg 82%
    08:00 +26°C° 0 mm 1 mps 740 mmHg 69%
    09:00 +28°C° 0 mm 1 mps 740 mmHg 57%
    10:00 +30°C° 0 mm 1 mps 739 mmHg 53%
    11:00 +31°C° 0 mm 1 mps 739 mmHg 49%
    12:00 +33°C° 0 mm 1 mps 739 mmHg 45%
    13:00 +33°C° 0 mm 1 mps 738 mmHg 46%
    14:00 +33°C° 0 mm 1 mps 737 mmHg 47%
    15:00 +32°C° 0 mm 1 mps 737 mmHg 49%
    16:00 +30°C° 0 mm 1 mps 737 mmHg 59%
    17:00 +28°C° 0 mm 1 mps 737 mmHg 68%
    18:00 +24°C° 0 mm 0 mps 738 mmHg 78%
    19:00 +23°C° 0 mm 0 mps 738 mmHg 83%
    20:00 +22°C° 0 mm 0 mps 739 mmHg 88%
    21:00 +22°C° 0 mm 0 mps 739 mmHg 92%
    22:00 +21°C° 0 mm 0 mps 739 mmHg 94%
    23:00 +21°C° 0 mm 0 mps 739 mmHg 95%

    Day after tomorrow, 22 November, Wednesday

    Time Temperature Precipitation Wind Pressure Humidity
    00:00 +21°C° 0 mm 0 mps 739 mmHg 97%
    01:00 +21°C° 0 mm 0 mps 739 mmHg 97%
    02:00 +20°C° 0 mm 0 mps 739 mmHg 97%
    03:00 +20°C° 0 mm 0 mps 738 mmHg 98%
    04:00 +20°C° 0 mm 0 mps 739 mmHg 98%
    05:00 +20°C° 0 mm 0 mps 739 mmHg 97%
    06:00 +20°C° 0 mm 0 mps 739 mmHg 97%
    07:00 +23°C° 0 mm 0 mps 740 mmHg 86%
    08:00 +25°C° 0 mm 0 mps 740 mmHg 75%
    09:00 +30°C° 0 mm 1 mps 741 mmHg 63%
    10:00 +31°C° 0 mm 1 mps 740 mmHg 58%
    11:00 +32°C° 0 mm 1 mps 739 mmHg 53%
    12:00 +34°C° 0 mm 1 mps 739 mmHg 47%
    13:00 +33°C° 0 mm 1 mps 738 mmHg 49%
    14:00 +33°C° 0 mm 1 mps 738 mmHg 50%
    15:00 +33°C° 0 mm 1 mps 737 mmHg 51%
    16:00 +30°C° 0.3 mm 1 mps 737 mmHg 65%
    17:00 +28°C° 0.3 mm 1 mps 738 mmHg 78%
    18:00 +25°C° 0.3 mm 1 mps 738 mmHg 92%
    19:00 +24°C° 0.2 mm 1 mps 739 mmHg 94%
    20:00 +22°C° 0.2 mm 0 mps 740 mmHg 96%
    21:00 +21°C° 0.2 mm 0 mps 740 mmHg 98%
    22:00 +21°C° 0.2 mm 0 mps 740 mmHg 99%
    23:00 +21°C° 0.2 mm 0 mps 740 mmHg 99%

    23 November, Thursday

    Time Temperature Precipitation Wind Pressure Humidity
    00:00 +21°C° 0.2 mm 0 mps 740 mmHg 99%
    01:00 +21°C° 0 mm 0 mps 740 mmHg 99%
    02:00 +21°C° 0 mm 0 mps 739 mmHg 99%
    03:00 +21°C° 0 mm 0 mps 739 mmHg 99%
    04:00 +21°C° 0 mm 0 mps 739 mmHg 99%
    05:00 +21°C° 0 mm 0 mps 739 mmHg 98%
    06:00 +21°C° 0 mm 0 mps 740 mmHg 98%
    07:00 +24°C° 0 mm 1 mps 740 mmHg 90%
    08:00 +26°C° 0 mm 1 mps 741 mmHg 83%
    09:00 +27°C° 0 mm 1 mps 741 mmHg 75%
    10:00 +29°C° 0 mm 1 mps 740 mmHg 66%
    11:00 +31°C° 0 mm 1 mps 740 mmHg 56%
    12:00 +32°C° 0 mm 1 mps 739 mmHg 46%
    13:00 +32°C° 0 mm 1 mps 738 mmHg 46%
    14:00 +32°C° 0 mm 1 mps 738 mmHg 46%
    15:00 +32°C° 0 mm 1 mps 737 mmHg 46%
    16:00 +30°C° 0 mm 1 mps 737 mmHg 56%
    17:00 +28°C° 0 mm 1 mps 738 mmHg 65%
    18:00 +26°C° 0 mm 1 mps 738 mmHg 74%
    19:00 +25°C° 0 mm 1 mps 739 mmHg 79%
    20:00 +22°C° 0 mm 0 mps 740 mmHg 85%
    21:00 +21°C° 0 mm 0 mps 740 mmHg 90%
    22:00 +21°C° 0 mm 0 mps 740 mmHg 92%
    23:00 +20°C° 0 mm 0 mps 740 mmHg 95%

    24 November, Friday

    Time Temperature Precipitation Wind Pressure Humidity
    00:00 +20°C° 0 mm 0 mps 740 mmHg 97%
    01:00 +19°C° 0 mm 0 mps 739 mmHg 97%
    02:00 +19°C° 0 mm 0 mps 739 mmHg 98%
    03:00 +19°C° 0 mm 0 mps 739 mmHg 98%
    04:00 +19°C° 0 mm 0 mps 739 mmHg 98%
    05:00 +19°C° 0 mm 0 mps 740 mmHg 98%
    06:00 +20°C° 0 mm 1 mps 740 mmHg 98%
    07:00 +23°C° 0 mm 1 mps 740 mmHg 86%
    08:00 +25°C° 0 mm 1 mps 741 mmHg 73%
    09:00 +28°C° 0 mm 1 mps 741 mmHg 61%
    10:00 +29°C° 0 mm 1 mps 741 mmHg 56%
    11:00 +30°C° 0 mm 2 mps 740 mmHg 51%
    12:00 +32°C° 0 mm 2 mps 739 mmHg 47%
    13:00 +31°C° 0 mm 2 mps 739 mmHg 50%
    14:00 +31°C° 0 mm 2 mps 738 mmHg 53%
    15:00 +30°C° 0 mm 2 mps 738 mmHg 56%
    16:00 +28°C° 0 mm 1 mps 738 mmHg 64%
    17:00 +27°C° 0 mm 1 mps 739 mmHg 72%
    18:00 +25°C° 0 mm 1 mps 739 mmHg 80%
    19:00 +24°C° 0 mm 1 mps 740 mmHg 84%
    20:00 +23°C° 0 mm 1 mps 741 mmHg 87%
    21:00 +20°C° 0 mm 0 mps 741 mmHg 91%
    22:00 +19°C° 0 mm 0 mps 741 mmHg 93%
    23:00 +19°C° 0 mm 0 mps 741 mmHg 95%

    25 November, Saturday

    Time Temperature Precipitation Wind Pressure Humidity
    00:00 +18°C° 0 mm 0 mps 740 mmHg 96%
    01:00 +18°C° 0 mm 0 mps 740 mmHg 97%
    02:00 +18°C° 0 mm 0 mps 740 mmHg 97%
    03:00 +19°C° 0 mm 1 mps 740 mmHg 98%
    04:00 +19°C° 0 mm 1 mps 740 mmHg 98%
    05:00 +19°C° 0 mm 1 mps 740 mmHg 98%
    06:00 +19°C° 0 mm 1 mps 741 mmHg 98%
    07:00 +21°C° 0 mm 1 mps 741 mmHg 83%
    08:00 +24°C° 0 mm 1 mps 742 mmHg 69%
    09:00 +27°C° 0 mm 1 mps 742 mmHg 55%
    10:00 +28°C° 0 mm 1 mps 741 mmHg 50%
    11:00 +30°C° 0 mm 1 mps 741 mmHg 46%
    12:00 +31°C° 0 mm 2 mps 740 mmHg 42%
    13:00 +31°C° 0 mm 2 mps 740 mmHg 43%
    14:00 +31°C° 0 mm 2 mps 739 mmHg 44%
    15:00 +31°C° 0 mm 2 mps 739 mmHg 45%
    16:00 +29°C° 0 mm 1 mps 739 mmHg 54%
    17:00 +27°C° 0 mm 1 mps 740 mmHg 63%
    18:00 +25°C° 0 mm 1 mps 740 mmHg 72%
    19:00 +24°C° 0 mm 1 mps 741 mmHg 77%
    20:00 +23°C° 0 mm 1 mps 741 mmHg 83%
    21:00 +20°C° 0 mm 0 mps 741 mmHg 88%
    22:00 +19°C° 0 mm 0 mps 741 mmHg 91%
    23:00 +19°C° 0 mm 0 mps 741 mmHg 94%
    Show more